Weather History for Knoxville, TN

Change the Weather History Date:

Friday, March 22, 2013

  Actual Average Record
Temperature  
Mean Temperature 36 °F 52 °F  
Max Temperature 45 °F 63 °F 87 °F (1907)
Min Temperature 26 °F 41 °F 13 °F (1876)
Degree Days  
Heating Degree Days 29 13  
Month to date heating degree days 457 353  
Since 1 July heating degree days 3149 3249  
Cooling Degree Days 0 0  
Month to date cooling degree days 2 0  
Year to date cooling degree days 4 0  
Moisture  
Dew Point 17 °F    
Average Humidity 45    
Maximum Humidity 58    
Minimum Humidity 31    
Precipitation  
Precipitation 0.00 in 0.15 in 1.74 in (1929)
Month to date precipitation 3.39 3.03  
Year to date precipitation 18.48 11.61  
Snow  
Snow 0.00 in 0.10 in - ()
Month to date snowfall 0.9 0.7  
Since 1 July snowfall 3.5 5.8  
Snow Depth 0.00 in    
Sea Level Pressure  
Sea Level Pressure 30.04 in    
Wind  
Wind Speed 3 mph (NNE)    
Max Wind Speed 9 mph    
Max Gust Speed 15 mph    
Visibility 10 miles    
Events      
T = Trace of Precipitation, MM = Missing Value Source: NWS Daily Summary

Daily Weather History Graph

Daily Weather History Graph

Search for Another Location

Airport:

Trip Planner

Search our weather history database for the weather conditions in past years. The results will help you decide how hot, cold, wet, or windy it might be!

Date:

Astronomy

Mar. 22, 2013 Rise Set
Actual Time 7:36 AM EDT 7:49 PM EDT
Civil Twilight 7:10 AM EDT 8:15 PM EDT
Nautical Twilight 6:40 AM EDT 8:45 PM EDT
Astronomical Twilight 6:10 AM EDT 9:15 PM EDT
Moon 3:23 PM EDT (3/22) 4:27 AM EDT (3/22)
Length of Visible Light 13h 04m
Length of Day
12h 13m
Waxing Gibbous, 77% of the Moon is Illuminated
Mar 22
Waxing Gibbous
Mar 27
Full
Apr 3
Last Quarter
Apr 10
New
Apr 18
First Quarter

Hourly Weather History & Observations

Time (EDT) Temp. Windchill Dew Point Humidity Pressure Visibility Wind Dir Wind Speed Gust Speed Precip Events Conditions
12:53 AM 30.2 °F 26.7 °F 12.2 °F 47% 30.02 in 10.0 mi ENE 3.5 mph - N/A   Clear
1:53 AM 28.9 °F 22.8 °F 14.0 °F 54% 30.03 in 10.0 mi NNE 5.8 mph - N/A   Clear
2:53 AM 28.9 °F 22.8 °F 12.0 °F 49% 30.04 in 10.0 mi NNE 5.8 mph - N/A   Clear
3:53 AM 28.9 °F 22.8 °F 12.9 °F 51% 30.04 in 10.0 mi North 5.8 mph - N/A   Clear
4:53 AM 28.0 °F 22.8 °F 14.0 °F 56% 30.02 in 10.0 mi NNE 4.6 mph - N/A   Clear
5:53 AM 27.0 °F 21.6 °F 14.0 °F 58% 30.03 in 10.0 mi NNE 4.6 mph - N/A   Clear
6:53 AM 28.0 °F 21.7 °F 15.1 °F 58% 30.05 in 10.0 mi NNE 5.8 mph - N/A   Mostly Cloudy
7:53 AM 28.0 °F 21.7 °F 16.0 °F 61% 30.06 in 10.0 mi NE 5.8 mph - N/A   Mostly Cloudy
8:53 AM 28.9 °F 21.9 °F 16.0 °F 58% 30.07 in 10.0 mi NNE 6.9 mph - N/A   Overcast
9:53 AM 30.9 °F 24.3 °F 18.0 °F 59% 30.08 in 10.0 mi NNE 6.9 mph - N/A   Overcast
10:53 AM 33.1 °F 30.0 °F 18.0 °F 54% 30.09 in 10.0 mi Variable 3.5 mph - N/A   Overcast
11:53 AM 36.0 °F 33.3 °F 17.1 °F 46% 30.08 in 10.0 mi Variable 3.5 mph - N/A   Overcast
12:53 PM 39.0 °F 36.8 °F 15.1 °F 38% 30.06 in 10.0 mi Variable 3.5 mph - N/A   Mostly Cloudy
1:53 PM 43.0 °F - 16.0 °F 34% 30.06 in 10.0 mi Calm Calm - N/A   Overcast
2:53 PM 44.1 °F - 17.1 °F 34% 30.03 in 10.0 mi Calm Calm - N/A   Overcast
3:53 PM 44.1 °F - 16.0 °F 32% 30.01 in 10.0 mi Calm Calm - N/A   Overcast
4:53 PM 45.0 °F 42.6 °F 18.0 °F 34% 30.01 in 10.0 mi WNW 4.6 mph - N/A   Overcast
5:53 PM 45.0 °F 43.5 °F 19.0 °F 36% 30.01 in 10.0 mi North 3.5 mph - N/A   Overcast
6:53 PM 45.0 °F 43.5 °F 19.0 °F 36% 30.01 in 10.0 mi NNW 3.5 mph - N/A   Overcast
7:53 PM 44.1 °F - 19.0 °F 37% 30.02 in 10.0 mi Calm Calm - N/A   Overcast
8:53 PM 45.0 °F - 18.0 °F 34% 30.03 in 10.0 mi Calm Calm - N/A   Overcast
9:53 PM 44.1 °F - 19.9 °F 38% 30.04 in 10.0 mi Calm Calm - N/A   Overcast
10:53 PM 43.0 °F 41.3 °F 24.1 °F 47% 30.04 in 10.0 mi ENE 3.5 mph - N/A   Overcast
11:53 PM 42.1 °F - 25.0 °F 51% 30.03 in 10.0 mi Calm Calm - N/A   Overcast